North Platte, NE

2:43 AM CDT on October 19, 2017 (GMT -0500)
North Platte Regional-Bird

Weather History for KLBF - October, 2012

Change the Weather History Date:

Tuesday, October 23, 2012

  Actual Average Record
Temperature  
Mean Temperature 59 °F 46 °F  
Max Temperature 72 °F 62 °F 88 °F (1899)
Min Temperature 46 °F 31 °F 9 °F (1917)
Degree Days  
Heating Degree Days 6 19  
Month to date heating degree days 380 334  
Since 1 July heating degree days 515 505  
Cooling Degree Days 0 0  
Month to date cooling degree days 2 0  
Year to date cooling degree days 1245 765  
Growing Degree Days 9 (Base 50)    
Moisture  
Dew Point 47 °F    
Average Humidity 72    
Maximum Humidity 100    
Minimum Humidity 44    
Precipitation  
Precipitation 0.00 in 0.05 in 1.10 in (1883)
Month to date precipitation 0.17 1.23  
Year to date precipitation 9.51 18.86  
Snow  
Snow 0.00 in 0.10 in 5.70 in (2002)
Month to date snowfall 0.9 1.3  
Since 1 July snowfall 0.9 1.5  
Since 1 September snowfall 0.9 1.5  
Snow Depth 0.00 in    
Sea Level Pressure  
Sea Level Pressure 29.72 in    
Wind  
Wind Speed 6 mph (ESE)    
Max Wind Speed 22 mph    
Max Gust Speed 29 mph    
Visibility 6 miles    
Events      
T = Trace of Precipitation, MM = Missing Value Source: NWS Daily Summary

Daily Weather History Graph

Daily Weather History Graph

Search for Another Location

Airport or City:

Trip Planner

Search our weather history database for the weather conditions in past years. The results will help you decide how hot, cold, wet, or windy it might be!

Date:

Astronomy

Oct. 23, 2012 Rise Set
Actual Time 8:03 AM CDT 6:49 PM CDT
Civil Twilight 7:35 AM CDT 7:17 PM CDT
Nautical Twilight 7:03 AM CDT 7:49 PM CDT
Astronomical Twilight 6:31 AM CDT 8:21 PM CDT
Moon 3:36 PM CDT (10/23) 1:54 AM CDT (10/23)
Length of Visible Light 11h 41m
Length of Day
10h 45m
Waxing Gibbous, 67% of the Moon is Illuminated
Oct 23
Waxing Gibbous
Oct 29
Full
Nov 6
Last Quarter
Nov 13
New
Nov 20
First Quarter

Hourly Weather History & Observations

Time (CDT) Temp. Dew Point Humidity Pressure Visibility Wind Dir Wind Speed Gust Speed Precip Events Conditions
12:39 AM 50.0 °F 44.6 °F 82% 29.78 in 9.0 mi ESE 10.4 mph - N/A   Overcast
12:53 AM 50.0 °F 44.6 °F 82% 29.77 in 8.0 mi ESE 8.1 mph - N/A   Overcast
1:43 AM 48.2 °F 44.6 °F 87% 29.75 in 6.0 mi ESE 10.4 mph - N/A   Overcast
1:53 AM 48.9 °F 46.0 °F 90% 29.74 in 6.0 mi East 8.1 mph - N/A   Overcast
2:39 AM 48.2 °F 46.4 °F 93% 29.75 in 3.0 mi ESE 6.9 mph - N/A   Overcast
2:48 AM 48.2 °F 46.4 °F 93% 29.74 in 2.5 mi ESE 6.9 mph - N/A   Overcast
2:53 AM 48.0 °F 46.0 °F 93% 29.73 in 2.5 mi ESE 5.8 mph - N/A   Overcast
3:11 AM 48.2 °F 46.4 °F 93% 29.75 in 1.8 mi ESE 4.6 mph - N/A   Overcast
3:53 AM 48.0 °F 46.9 °F 96% 29.73 in 1.5 mi East 5.8 mph - N/A   Overcast
4:08 AM 48.2 °F 46.4 °F 93% 29.73 in 1.2 mi East 5.8 mph - N/A   Overcast
4:37 AM 48.2 °F 46.4 °F 93% 29.73 in 1.5 mi East 3.5 mph - N/A   Overcast
4:53 AM 48.0 °F 46.9 °F 96% 29.71 in 1.5 mi ESE 4.6 mph - N/A   Overcast
5:04 AM 48.2 °F 46.4 °F 93% 29.72 in 1.2 mi East 5.8 mph - N/A   Overcast
5:53 AM 48.9 °F 48.0 °F 97% 29.71 in 1.2 mi ESE 3.5 mph - N/A   Overcast
6:12 AM 48.2 °F 46.4 °F 93% 29.72 in 0.8 mi ESE 4.6 mph - N/A   Overcast
6:53 AM 48.0 °F 48.0 °F 100% 29.71 in 0.8 mi ESE 3.5 mph - N/A   Mist
7:53 AM 48.9 °F 48.0 °F 97% 29.70 in 0.8 mi ESE 4.6 mph - N/A   Mist
8:53 AM 48.9 °F 48.9 °F 100% 29.71 in 0.8 mi SSE 3.5 mph - N/A   Overcast
9:02 AM 50.0 °F 48.2 °F 94% 29.73 in 1.5 mi South 5.8 mph - N/A   Overcast
9:10 AM 50.0 °F 48.2 °F 94% 29.73 in 3.0 mi SSW 6.9 mph - N/A   Overcast
9:53 AM 51.8 °F 48.2 °F 88% 29.72 in 5.0 mi South 8.1 mph - N/A   Overcast
10:53 AM 50.0 °F 48.0 °F 93% 29.72 in 10.0 mi SW 6.9 mph - N/A   Overcast
11:53 AM 52.0 °F 48.0 °F 86% 29.73 in 10.0 mi WSW 8.1 mph - N/A   Overcast
12:41 PM 53.6 °F 48.2 °F 82% 29.72 in 10.0 mi WSW 11.5 mph - N/A   Overcast
12:53 PM 55.0 °F 48.9 °F 80% 29.70 in 10.0 mi SW 8.1 mph - N/A   Overcast
1:32 PM 59.0 °F 48.2 °F 67% 29.71 in 10.0 mi WNW 8.1 mph - N/A   Scattered Clouds
1:53 PM 60.1 °F 48.9 °F 67% 29.67 in 10.0 mi Calm Calm - N/A   Clear
2:53 PM 64.0 °F 48.9 °F 58% 29.65 in 10.0 mi Calm Calm - N/A   Clear
3:53 PM 70.0 °F 48.0 °F 46% 29.63 in 10.0 mi SSE 5.8 mph - N/A   Clear
4:53 PM 71.1 °F 48.0 °F 44% 29.65 in 10.0 mi ESE 4.6 mph - N/A   Clear
5:53 PM 68.0 °F 48.9 °F 50% 29.66 in 10.0 mi ESE 9.2 mph - N/A   Clear
6:53 PM 57.0 °F 46.9 °F 69% 29.71 in 10.0 mi East 8.1 mph - N/A   Clear
7:53 PM 52.0 °F 46.0 °F 80% 29.73 in 10.0 mi ESE 9.2 mph - N/A   Clear
8:53 PM 50.0 °F 45.0 °F 83% 29.74 in 10.0 mi Calm Calm - N/A   Clear
9:53 PM 46.9 °F 43.0 °F 86% 29.75 in 10.0 mi East 4.6 mph - N/A   Clear
10:53 PM 50.0 °F 46.0 °F 86% 29.81 in 10.0 mi NE 6.9 mph - N/A   Clear
11:53 PM 48.9 °F 42.1 °F 77% 29.81 in 10.0 mi NNE 9.2 mph - N/A   Clear